Location: Graswijk
(52.9667°N, 6.5500°E)
Time: 11:38:04
(UTC+00:00)

CZ-2C R/B - Pass Details

Date: 15 May 2026
Orbit: 703 x 901 km, 98.2° (Epoch: 6 June)

Event Time Altitude Azimuth Distance (km) Brightness Sun altitude
Rises 22:58:39 0° 18° (NNE) 3,496 7.6 -17.7°
Reaches altitude 10° 23:01:09 10° 24° (NNE) 2,569 6.6 -17.7°
Maximum altitude 23:06:42 47° 98° (E) 1,187 3.8 -17.8°
Enters shadow 23:09:27 28° 155° (SSE) 1,641 4.2 -17.8°
